SWARM B

Last updated on Sun Jun 21 2026 00:03:39 GMT+0000 (Coordinated Universal Time)

1 39451U 13067A 26171.47264617 .00002821 00000+0 10029-3 0 9990 2 39451 87.7443 341.3181 0003214 83.7057 276.4559 15.28568230683744
UTC large
Height (km)
Speed (km/s)
/
Latitude / Longitude
Inclination (degrees)
Orbital Period (minutes)
Azimuth
Elevation
Range (km)
Doppler Factor

Next 0 passes for location: London (51.5072 / 0.1276)

No passes found over London.
SWARM B